sat.trackr.live / text

‹ back to catalog

STARLINK-35836

NORAD 66571 · 2025-268Q

PAYLOAD ACTIVE UNKNOWN

§ Identity

Operator
Country
US
Launch date
2025-11-21
Launch site
AFETR
Launch vehicle
Mass (kg)
RCS (m²)

Purposes: comms

External: N2YO · Heavens-Above · Gunter

§ Orbital elements

Epoch: 2026-09-20T11:10:12.478080Z

Period
94.27 min
Inclination
42.9986°
Eccentricity
0.0000615
Mean motion
15.27590305 rev/d
Perigee alt
482.6 km
Apogee alt
483.4 km
Semi-major
6,861.2 km
B*
3.0867e-4
RAAN
327.4633°
Arg perigee
259.8312°
Mean anomaly
100.2471°
Rev number
4,774

§ Raw data

STARLINK-358361 66571U 25268Q   26263.46542220  .00008244  00000+0  30867-3 0  99962 66571  42.9986 327.4633 0000615 259.8312 100.2471 15.27590305 47749

JSON: /api/v1/satellites/66571 · /tle

For live sub-satellite position, see the globe view (requires WebGL).

§ Visibility from observer

Set your observer location to see the next 7 days of passes ≥ 10°. The values pass through the URL so the page stays shareable.

No JS? Fill the form by hand. The geolocation button needs JavaScript.